This is the latest recevied weather packets stored in our database for station/object DL5DI-H. If no packets are shown the sender has not sent any weather packets the latest 10 day(s).
| Time | Temp. | Humidity | Pressure | Rain* | Wind** | Luminosity | Snow |
|---|---|---|---|---|---|---|---|
| 1777725005 | 26.67° C | 40% | 1018.7 hPa | 0 mm | - | - | - |
| 1777724402 | 26.67° C | 42% | 1018.9 hPa | 0 mm | - | - | - |
| 1777723801 | 26.11° C | 42% | 1019 hPa | 0 mm | - | - | - |
| 1777723205 | 25.56° C | 43% | 1019.1 hPa | 0 mm | - | - | - |
| 1777722601 | 25.56° C | 43% | 1019.3 hPa | 0 mm | - | - | - |
| 1777722005 | 25° C | 44% | 1019.4 hPa | 0 mm | - | - | - |
| 1777721404 | 25° C | 44% | 1019.6 hPa | 0 mm | - | - | - |
| 1777720802 | 24.44° C | 44% | 1019.7 hPa | 0 mm | - | - | - |
| 1777720202 | 23.89° C | 45% | 1019.8 hPa | 0 mm | - | - | - |
| 1777719601 | 23.33° C | 47% | 1019.9 hPa | 0 mm | - | - | - |
| 1777719005 | 22.78° C | 48% | 1020 hPa | 0 mm | - | - | - |
| 1777718401 | 22.22° C | 49% | 1020.1 hPa | 0 mm | - | - | - |
| 1777717805 | 21.67° C | 50% | 1020.3 hPa | 0 mm | - | - | - |
| 1777717201 | 21.11° C | 52% | 1020.3 hPa | 0 mm | - | - | - |
| 1777716601 | 20° C | 54% | 1020.5 hPa | 0 mm | - | - | - |
| 1777716005 | 19.44° C | 58% | 1020.6 hPa | 0 mm | - | - | - |
| 1777715405 | 18.89° C | 60% | 1020.8 hPa | 0 mm | - | - | - |
| 1777714804 | 18.33° C | 62% | 1020.9 hPa | 0 mm | - | - | - |
| 1777714205 | 17.78° C | 63% | 1021.2 hPa | 0 mm | - | - | - |
| 1777713605 | 16.67° C | 64% | 1021.3 hPa | 0 mm | - | - | - |
| 1777713001 | 16.11° C | 65% | 1021.4 hPa | 0 mm | - | - | - |
| 1777712405 | 15.56° C | 65% | 1021.5 hPa | 0 mm | - | - | - |
| 1777711801 | 15.56° C | 66% | 1021.6 hPa | 0 mm | - | - | - |
| 1777711205 | 15° C | 66% | 1021.7 hPa | 0 mm | - | - | - |
| 1777710604 | 14.44° C | 67% | 1021.8 hPa | 0 mm | - | - | - |
* Rain latest hour (hover to see other rain measurements)
** Current wind speed in m/s (hover to see current wind gust speed)